CW9879 Weather Reports


Display with metric or nautical units.
time (UTC)temp
F
wind
direction
speed
MPH
gust
MPH
rain 1hr
in
rain 24hr
in
rain mn
in
humidity
%
barometer
mb
20260504081527 46 256 0.0 0.0 0.00 0.00 0.00 81 1016.3
20260504050016 45 256 0.0 0.0 0.00 0.00 0.00 82 1016.3
20260504044526 45 256 0.0 0.0 0.00 0.00 0.00 82 1016.1
20260504043026 45 256 0.0 0.0 0.00 0.00 0.00 83 1016.1
20260504041530 45 256 0.0 0.0 0.00 0.00 0.00 82 1016.0
20260504040017 44 256 0.0 0.0 0.00 0.00 0.00 82 1016.1
20260504034520 44 256 0.0 0.0 0.00 0.00 0.00 81 1016.2
20260504033004 44 256 0.0 0.0 0.00 0.00 0.00 80 1016.0
20260504031504 45 256 0.0 0.0 0.00 0.00 0.00 77 1015.9
20260504030008 45 256 0.0 0.0 0.00 0.00 0.00 76 1016.0
20260504024516 46 256 0.0 0.0 0.00 0.00 0.00 76 1015.8
20260504023004 46 256 0.0 0.0 0.00 0.00 0.00 74 1015.9
20260504021504 47 256 0.0 0.0 0.00 0.00 0.00 71 1015.9
20260504020012 47 256 0.0 0.0 0.00 0.00 0.00 69 1015.8
20260504014515 48 256 0.0 0.0 0.00 0.00 0.00 68 1015.8
20260504013016 49 256 0.0 0.0 0.00 0.00 0.00 65 1015.9
20260504011504 50 256 0.0 0.0 0.00 0.00 0.00 64 1015.6
20260504010005 51 256 0.0 0.0 0.00 0.00 0.00 62 1015.6
20260504004510 52 256 0.0 0.0 0.00 0.00 0.00 60 1015.5
20260504003012 53 256 0.0 0.0 0.00 0.00 0.00 59 1015.4
20260504001518 54 256 0.0 0.0 0.00 0.00 0.00 55 1015.4
20260504000004 56 256 0.0 0.0 0.00 0.00 0.00 52 1015.3
20260503234508 58 256 0.0 0.0 0.00 0.00 0.00 50 1015.1
20260503233033 60 256 0.0 0.0 0.00 0.00 0.00 47 1015.0
20260503231516 61 256 0.0 0.0 0.00 0.00 0.00 42 1014.9
20260503230020 62 256 0.0 0.0 0.00 0.00 0.00 39 1014.9
20260503224507 63 257 0.0 0.0 0.00 0.00 0.00 31 1014.9
20260503223008 63 332 0.0 3.0 0.00 0.00 0.00 31 1015.0
20260503221513 63 51 0.0 2.0 0.00 0.00 0.00 31 1015.1
20260503220037 63 270 0.0 3.0 0.00 0.00 0.00 31 1015.1
20260503214520 64 300 0.0 3.0 0.00 0.00 0.00 31 1015.1
20260503213009 63 272 1.0 5.0 0.00 0.00 0.00 31 1015.2
20260503211512 63 16 0.0 3.0 0.00 0.00 0.00 32 1015.2
20260503210014 63 352 1.0 5.0 0.00 0.00 0.00 30 1015.3
20260503204521 63 236 1.0 5.0 0.00 0.00 0.00 32 1015.3
20260503203030 64 200 1.0 4.0 0.00 0.00 0.00 30 1015.6
20260503201512 63 283 0.0 3.0 0.00 0.00 0.00 33 1015.6
20260503200014 62 203 0.0 4.0 0.00 0.00 0.00 31 1015.9
20260503194521 61 360 0.0 5.0 0.00 0.00 0.00 33 1016.1
20260503193021 61 328 2.0 5.0 0.00 0.00 0.00 31 1016.4
20260503191523 62 180 0.0 6.0 0.00 0.00 0.00 35 1016.5
20260503190011 63 123 1.0 5.0 0.00 0.00 0.00 31 1016.8
20260503184514 63 252 1.0 3.0 0.00 0.00 0.00 31 1016.8
20260503183004 63 201 1.0 4.0 0.00 0.00 0.00 31 1017.1
20260503181504 61 352 1.0 4.0 0.00 0.00 0.00 33 1017.3
20260503180012 60 278 1.0 4.0 0.00 0.00 0.00 35 1017.3
20260503174502 60 269 1.0 5.0 0.00 0.00 0.00 34 1017.2
20260503173003 59 286 1.0 5.0 0.00 0.00 0.00 37 1017.4
20260503171530 58 285 1.0 4.0 0.00 0.00 0.00 36 1017.5